Location: Firnhaberau
(48.4049°N, 10.8963°E)
Time: 19:18:56
(UTC+00:00)

STARLINK-61 - Pass Details

Date: 07 June 2020
Orbit: 505 x 516 km, 53.0° (Epoch: 10 July)

Event Time Altitude Azimuth Distance (km) Brightness Sun altitude
Exits shadow 01:36:23 19° 213° (SSW) 1,242 4.8 -12.1°
Maximum altitude 01:38:52 49° 145° (SE) 664 3.9 -11.9°
Drops below altitude 10° 01:42:40 10° 70° (ENE) 1,737 7.0 -11.6°
Sets 01:44:55 0° 65° (ENE) 2,629 8.2 -11.3°
